This demonstration page uses our WeatherBlox Daily Observations layout. Learn more.

Left ArrowRight Arrow

Hourly Observations for February 20, 2021

Temp ( °F °C ) Dew Point ( °F °C ) Humidity (%) Winds ( mph kmh ) Pressure ( in mb ) Visibility ( mi km ) Precip ( " mm )
12:54 am 00:54 Hazy 6 -14.4 1 -17.2 79 79 NNW 6 9 30.24 1024 6 9.65604 0 0
1:54 am 01:54 Clear with Mist and Fog 5 -15 2 -16.7 87 87 NW 5 7 30.24 1024 5 8.0467 0 0
2:54 am 02:54 Clear with Mist and Fog 6 -14.4 2 -16.7 83 83 Calm 30.21 1023 5 8.0467 0 0
3:54 am 03:54 Clear 6 -14.4 1 -17.2 79 79 Calm 30.2 1023 7 11.26538 0 0
4:54 am 04:54 Clear 5 -15 -1 -18.3 76 76 NW 3 6 30.2 1023 7 11.26538 0 0
5:54 am 05:54 Hazy 2 -16.7 -3 -19.4 80 80 N 6 9 30.21 1023 6 9.65604 0 0
6:06 am 06:06 Mostly Cloudy with Freezing Fog 1 -17.2 -3 -19.4 83 83 N 8 13 30.29 1026 0.5 0.80467 0 0
6:54 am 06:54 Cloudy with Haze 6 -14.4 1 -17.2 79 79 N 5 7 30.2 1023 6 9.65604 0 0
7:06 am 07:06 Cloudy with Mist and Fog 6 -14.4 2 -16.7 83 83 N 5 7 30.27 1025 1.5 2.41401 0 0
7:13 am 07:13 Mostly Cloudy with Freezing Fog 7 -13.9 4 -15.6 87 87 NW 3 6 30.26 1025 0.25 0.402335 0 0
7:25 am 07:25 Mostly Cloudy with Freezing Fog 7 -13.9 4 -15.6 87 87 Calm 30.27 1025 0.5 0.80467 0 0
7:39 am 07:39 Mostly Cloudy with Freezing Fog 8 -13.3 5 -15 87 87 Calm 30.28 1025 0.25 0.402335 0 0
7:54 am 07:54 Mostly Cloudy with Freezing Fog 9 -12.8 7 -13.9 92 92 Calm 30.22 1023 N/A 0 0
8:54 am 08:54 Mostly Cloudy with Freezing Fog 12 -11.1 10 -12.2 92 92 Calm 30.21 1023 0.25 0.402335 0 0
9:37 am 09:37 Mostly Cloudy with Freezing Fog 13 -10.6 10 -12.2 88 88 SSW 3 6 30.26 1025 0.25 0.402335 0 0
9:54 am 09:54 Mostly Cloudy with Freezing Fog 14 -10 12 -11.1 92 92 SSW 5 7 30.21 1023 0.25 0.402335 0 0
10:09 am 10:09 Cloudy with Freezing Fog 15 -9.4 13 -10.6 91 91 Calm 30.26 1025 0.5 0.80467 0 0
10:45 am 10:45 Mostly Cloudy with Mist and Fog 15 -9.4 12 -11.1 88 88 SSW 5 7 30.26 1025 4 6.43736 0 0
10:54 am 10:54 Partly Cloudy with Mist and Fog 15 -9.4 13 -10.6 91 91 Calm 30.21 1023 3 4.82802 0 0
11:54 am 11:54 Sunny with Mist and Fog 19 -7.2 15 -9.4 84 84 S 3 6 30.21 1023 6 9.65604 0 0
12:54 pm 12:54 Hazy 22 -5.6 17 -8.3 82 82 Calm 30.18 1022 6 9.65604 0 0
1:54 pm 13:54 Hazy 30 -1.1 19 -7.2 64 64 Calm 30.14 1021 6 9.65604 0 0
2:54 pm 14:54 Hazy 33 0.6 21 -6.1 61 61 Calm 30.11 1020 6 9.65604 0 0
3:54 pm 15:54 Sunny 34 1.1 23 -5 64 64 SE 6 9 30.08 1019 7 11.26538 0 0
4:54 pm 16:54 Sunny 33 0.6 24 -4.4 70 70 SSE 12 19 30.08 1019 8 12.87472 0 0
5:54 pm 17:54 Sunny 31 -0.6 23 -5 72 72 ESE 9 15 30.07 1018 7 11.26538 0 0
6:54 pm 18:54 Clear 30 -1.1 22 -5.6 72 72 E 7 11 30.06 1018 7 11.26538 0 0
7:54 pm 19:54 Clear 30 -1.1 23 -5 75 75 ESE 9 15 30.05 1018 7 11.26538 0 0
8:54 pm 20:54 Clear 30 -1.1 23 -5 75 75 ESE 12 19 30.05 1018 7 11.26538 0 0
9:54 pm 21:54 Clear 30 -1.1 23 -5 75 75 SSE 10 17 30.05 1018 7 11.26538 0 0
10:54 pm 22:54 Clear 31 -0.6 24 -4.4 76 76 SSE 10 17 30.05 1018 8 12.87472 0 0
11:54 pm 23:54 Clear 30 -1.1 24 -4.4 79 79 S 7 11 30.02 1017 7 11.26538 0 0

Powered by AerisWeather